Terminal Aerodrome Forecast
Issued by NWS

Home | Current Version | Previous Version | Text Only | Print | Product List | Glossary On
Versions: 1 2 3 4 5 6 7 8 9 10 11 12 13 14 15 16
000
FTUS45 KBOI 200705 AAA
TAFBKE
TAF AMD
KBKE 200705Z 2007/2106 33015G25KT P6SM SCT200
     FM200900 33006KT P6SM SCT200
     FM210200 VRB05KT P6SM SCT200=

USA.gov is the U.S. government's official web portal to all federal, state and local government web resources and services.